ICT,Max TemperatureF,Mean TemperatureF,Min TemperatureF,Max Dew PointF,MeanDew PointF,Min DewpointF,Max Humidity, Mean Humidity, Min Humidity, Max Sea Level PressureIn, Mean Sea Level PressureIn, Min Sea Level PressureIn, Max VisibilityMiles, Mean VisibilityMiles, Min VisibilityMiles, Max Wind SpeedMPH, Mean Wind SpeedMPH, Max Gust SpeedMPH,PrecipitationIn, CloudCover, Events, WindDirDegrees
2012-11-1,87,81,75,75,71,68,79,69,58,29.92,29.84,29.77,6,6,6,7,3,,0.00,3,,352
2012-11-2,89,83,77,77,74,70,89,73,55,29.89,29.81,29.74,6,6,6,10,4,,0.00,4,,288
2012-11-3,89,84,78,77,75,72,89,72,55,29.86,29.80,29.74,6,6,6,9,3,,0.00,2,,151
2012-11-4,93,86,80,79,75,70,89,69,46,29.86,29.79,29.74,6,6,5,8,2,,0.00,1,,11
2012-11-5,91,84,78,79,75,70,94,68,49,29.83,29.78,29.74,6,6,4,7,3,,0.00,1,Rain-Thunderstorm,208
2012-11-6,87,81,75,77,76,72,94,88,66,29.83,29.80,29.77,6,6,3,9,3,,0.00,4,Rain-Thunderstorm,135
2012-11-7,87,82,77,79,76,72,94,77,58,29.86,29.78,29.71,6,6,6,8,3,,0.00,3,,166
2012-11-8,89,84,80,79,76,72,89,74,55,29.83,29.76,29.71,6,6,5,10,4,,0.00,1,,141
2012-11-9,91,86,80,79,77,73,89,75,59,29.83,29.77,29.71,6,6,5,7,2,,0.00,2,,192
2012-11-10,91,83,75,79,76,73,89,70,55,29.86,29.79,29.71,6,6,6,9,2,,0.00,3,,201
2012-11-11,91,86,82,81,75,72,89,69,52,29.86,29.79,29.71,6,6,6,9,5,,0.00,3,,94
2012-11-12,89,84,78,81,75,72,94,74,55,29.89,29.84,29.77,6,6,5,10,5,,0.00,3,,116
2012-11-13,89,84,78,79,76,73,94,80,59,29.89,29.81,29.74,6,6,4,13,2,,0.00,4,Rain,169
2012-11-14,89,84,78,79,76,73,94,76,62,29.83,29.78,29.71,6,6,5,7,3,,0.00,3,,214
2012-11-15,89,83,77,77,74,70,94,76,55,29.86,29.80,29.74,6,6,3,16,2,,0.00,4,Rain,117
2012-11-16,89,84,78,79,76,73,94,78,59,29.86,29.80,29.74,6,6,5,14,3,,0.00,6,Thunderstorm,341
2012-11-17,87,82,78,77,75,73,89,79,66,29.86,29.81,29.74,6,6,5,12,5,,0.00,4,,75
2012-11-18,87,81,75,77,76,73,94,85,66,29.86,29.82,29.74,6,6,5,10,5,,0.00,5,Rain,50
2012-11-19,87,82,76,77,75,73,94,79,66,29.89,29.83,29.74,6,6,1,10,4,,0.00,3,Rain-Thunderstorm,49
2012-11-20,89,83,77,79,75,72,94,75,58,29.92,29.83,29.74,6,6,5,6,3,,0.00,3,,132
2012-11-21,89,84,80,79,77,75,94,77,62,29.89,29.82,29.74,6,6,6,9,3,,0.00,3,,248
2012-11-22,91,84,78,79,76,72,94,74,52,29.86,29.78,29.71,6,6,6,10,2,,0.00,3,,293
2012-11-23,89,84,80,79,77,75,94,82,62,29.86,29.79,29.71,6,6,4,7,1,,0.00,3,,120
2012-11-24,89,84,78,77,75,72,94,74,55,29.89,29.81,29.71,6,6,2,10,4,,0.00,3,,147
2012-11-25,87,82,78,79,77,75,94,81,66,29.89,29.84,29.77,6,6,5,7,2,,0.00,3,,127
2012-11-26,91,84,78,79,73,66,94,71,43,29.89,29.83,29.77,6,6,6,8,4,,0.00,3,,82
2012-11-27,89,83,77,79,76,73,94,75,59,29.86,29.80,29.71,6,6,6,8,3,,0.00,3,,131
2012-11-28,86,78,71,79,76,73,94,78,66,29.89,29.81,29.74,6,6,5,9,2,,0.00,3,,122
2012-11-29,89,84,78,79,76,72,94,76,55,29.86,29.79,29.74,6,6,5,6,3,,0.00,1,,135
2012-11-30,89,84,78,79,76,73,94,78,62,29.86,29.80,29.71,6,6,6,12,4,,0.00,3,,148